Weather History for PABR - September, 2013

Change the Weather History Date:

Sunday, September 15, 2013

  Actual Average Record
Temperature  
Mean Temperature 31 °F 33 °F  
Max Temperature 32 °F 36 °F 55 °F (1973)
Min Temperature 29 °F 29 °F 15 °F (1987)
Degree Days  
Heating Degree Days 34 32  
Month to date heating degree days 432 453  
Since 1 July heating degree days 1841 2007  
Cooling Degree Days 0    
Month to date cooling degree days 0  
Year to date cooling degree days 0  
Moisture  
Dew Point 24 °F    
Average Humidity 0    
Maximum Humidity 0    
Minimum Humidity 0    
Precipitation  
Precipitation T in 0.02 in 0.20 in (1972)
Month to date precipitation 0.81 0.41  
Year to date precipitation 5.83 3.46  
Snow  
Snow T in 0.20 in 3.00 in (1972)
Month to date snowfall 0.5 1.6  
Since 1 July snowfall 1.6 2.7  
Since 1 September snowfall 0.5 1.6  
Snow Depth T in    
Sea Level Pressure  
Sea Level Pressure 30.33 in    
Wind  
Wind Speed 10 mph (NE)    
Max Wind Speed 16 mph    
Max Gust Speed 21 mph    
Visibility 9 miles    
Events Snow    
T = Trace of Precipitation, MM = Missing Value Source: NWS Daily Summary

Daily Weather History Graph

Daily Weather History Graph

Search for Another Location

Airport or City:

Trip Planner

Search our weather history database for the weather conditions in past years. The results will help you decide how hot, cold, wet, or windy it might be!

Date:

Astronomy

Sep. 15, 2013 Rise Set
Actual Time 7:38 AM AKDT 9:03 PM AKDT
Civil Twilight 6:29 AM AKDT 10:11 PM AKDT
Nautical Twilight 4:51 AM AKDT 11:46 PM AKDT
Astronomical Twilight Sun does not rise Sun does not rise
Moon 8:21 PM AKDT (9/15) 1:01 AM AKDT (9/15)
Length of Visible Light 15h 41m
Length of Day
13h 24m
Waxing Gibbous, 83% of the Moon is Illuminated
Sep 15
Waxing Gibbous
Sep 19
Full
Sep 26
Last Quarter
Oct 4
New
Oct 11
First Quarter

Hourly Weather History & Observations

Time (AKDT) Temp. Windchill Dew Point Humidity Pressure Visibility Wind Dir Wind Speed Gust Speed Precip Events Conditions
12:53 AM 32.0 °F 21.2 °F 25.0 °F 75% 30.22 in 9.0 mi NNE 16.1 mph - 0.00 in Snow Light Snow
1:53 AM 32.0 °F 23.6 °F 23.0 °F 69% 30.25 in 9.0 mi NNE 10.4 mph - 0.00 in Snow Light Snow
2:53 AM 30.9 °F 21.7 °F 24.1 °F 76% 30.26 in 9.0 mi NNE 11.5 mph - 0.00 in Snow Light Snow
3:49 AM 30.2 °F 21.3 °F 24.8 °F 80% 30.27 in 9.0 mi NE 10.4 mph - 0.00 in Snow Light Snow
3:53 AM 30.9 °F 22.8 °F 23.0 °F 72% 30.28 in 9.0 mi NNE 9.2 mph - 0.00 in Snow Light Snow
4:00 AM 30.2 °F 21.9 °F 23.0 °F 75% 30.27 in 9.0 mi NNE 9.2 mph - 0.00 in Snow Light Snow
4:25 AM 30.2 °F 21.3 °F 24.8 °F 80% 30.28 in 9.0 mi North 10.4 mph - 0.00 in Snow Light Snow
4:53 AM 30.9 °F 21.2 °F 25.0 °F 79% 30.29 in 9.0 mi North 12.7 mph - 0.00 in Snow Light Snow
5:27 AM 30.2 °F 21.3 °F 23.0 °F 75% 30.29 in 9.0 mi North 10.4 mph - 0.00 in Snow Light Snow
5:53 AM 30.9 °F 21.7 °F 24.1 °F 76% 30.30 in 10.0 mi NNE 11.5 mph - 0.00 in   Overcast
6:53 AM 30.0 °F 21.1 °F 24.1 °F 79% 30.31 in 10.0 mi North 10.4 mph - N/A   Overcast
7:12 AM 30.2 °F 22.6 °F 23.0 °F 75% 30.30 in 10.0 mi NNE 8.1 mph - N/A   Overcast
7:53 AM 30.0 °F 22.4 °F 24.1 °F 79% 30.32 in 10.0 mi NE 8.1 mph - N/A   Overcast
8:12 AM 30.2 °F 22.6 °F 24.8 °F 80% 30.32 in 10.0 mi NNE 8.1 mph - N/A   Overcast
8:53 AM 30.9 °F 24.3 °F 24.1 °F 76% 30.33 in 10.0 mi NNE 6.9 mph - N/A   Overcast
9:53 AM 30.9 °F 27.5 °F 21.9 °F 69% 30.35 in 10.0 mi ENE 3.5 mph - N/A   Overcast
10:40 AM 30.2 °F 23.4 °F 24.8 °F 80% 30.35 in 1.8 mi ENE 6.9 mph - 0.00 in Snow Light Snow
10:48 AM 30.2 °F 21.9 °F 24.8 °F 80% 30.35 in 3.0 mi ENE 9.2 mph - 0.00 in Snow Light Snow
10:53 AM 30.0 °F 21.7 °F 25.0 °F 82% 30.35 in 7.0 mi NE 9.2 mph - 0.00 in   Overcast
11:53 AM 30.0 °F 21.7 °F 24.1 °F 79% 30.36 in 10.0 mi East 9.2 mph - N/A   Overcast
12:53 PM 30.0 °F 22.4 °F 23.0 °F 75% 30.37 in 10.0 mi ENE 8.1 mph - N/A   Overcast
1:53 PM 30.9 °F 23.5 °F 23.0 °F 72% 30.37 in 10.0 mi ENE 8.1 mph - N/A   Overcast
2:53 PM 30.0 °F 21.1 °F 23.0 °F 75% 30.37 in 10.0 mi NE 10.4 mph - N/A   Overcast
3:53 PM 30.9 °F 21.2 °F 23.0 °F 72% 30.37 in 7.0 mi ENE 12.7 mph - N/A   Overcast
4:53 PM 30.9 °F 20.7 °F 23.0 °F 72% 30.37 in 10.0 mi ENE 13.8 mph - N/A   Overcast
5:53 PM 30.0 °F 21.1 °F 23.0 °F 75% 30.38 in 10.0 mi East 10.4 mph - N/A   Overcast
6:53 PM 30.0 °F 20.5 °F 23.0 °F 75% 30.37 in 10.0 mi ENE 11.5 mph - 0.00 in   Overcast
7:53 PM 30.0 °F 20.0 °F 23.0 °F 75% 30.37 in 10.0 mi ENE 12.7 mph - N/A   Overcast
8:53 PM 30.0 °F 21.7 °F 23.0 °F 75% 30.37 in 10.0 mi ENE 9.2 mph - N/A   Overcast
9:53 PM 30.0 °F 21.1 °F 23.0 °F 75% 30.37 in 10.0 mi East 10.4 mph - N/A   Overcast
10:53 PM 30.0 °F 20.5 °F 23.0 °F 75% 30.37 in 10.0 mi NE 11.5 mph - N/A   Overcast
11:30 PM 28.4 °F 18.5 °F 23.0 °F 80% 30.36 in 10.0 mi ENE 11.5 mph - N/A   Overcast
11:40 PM 28.4 °F 17.5 °F 21.2 °F 74% 30.36 in 10.0 mi NE 13.8 mph - N/A   Overcast
11:53 PM 28.9 °F 19.2 °F 21.9 °F 75% 30.37 in 10.0 mi NE 11.5 mph - N/A   Overcast